Location: ????
(33.1659°N, 35.6604°E)
Time: 05:05:06
(UTC+00:00)

Cosmos 1707 - Pass Details

Date: 20 September 2019
Orbit: 517 x 530 km, 82.5° (Epoch: 20 October)

Event Time Altitude Azimuth Distance (km) Brightness Sun altitude
Rises 16:30:13 0° 5° (N) 2,675 6.4 -11.8°
Reaches altitude 10° 16:32:33 10° 15° (NNE) 1,781 5.4 -12.3°
Maximum altitude 16:36:04 32° 80° (E) 931 3.5 -13.0°
Enters shadow 16:38:24 17° 133° (SE) 1,368 4.3 -13.5°
